SCP
0 0 0 0 0 0 0 0 0 0 0 0 0 0 0 0 0 0 0 0 0 0 0 0 0 0 0 0 0 0 0 0 0 0 0 0 0 0 0 0 0 0 0 0
0 0 0 0 0 0 0 0 0 0 0 0 0 0 0 0 0 0 0 0 0 0 0 0 0 0 0 0 0 0 0 0 0 0 0 0 0 0 0 0 0 0 0 0
0 0 0 0 0 0 0 0 0 0 0 0 0 0 0 0 0 0 0 0 0 0 0 0 0 0 0 0 0 0 0 0 0 0 0 0 0 0 0 0 0 0 0 0
0 0 0 0 0 0 0 0 0 0 0 0 0 0 0 0 0 0 0 0 0 0 0 0 0 0 0 0 0 0 0 0 0 0 0 0 0 0 0 0 0 0 0 0
0 0 0 0 0 0 0 0 0 0 0 0 0 0 0 0 0 0 0 0 0 0 0 0 0 0 0 0 0 0 0 0 0 0 0 0 0 0 0 0 0 0 0 0
0 0 0 0 0 0 0 0 0 0 0 0 0 0 0 0 0 0 0 0 0 0 0 0 0 0 0 0 0 0 0 0 0 0 0 0 0 0 0 0 0 0 0 0
0 0 0 0 0 0 0 0 0 0 0 0 0 0 0 0 0 0 0 0 0 0 0 0 0 0 0 0 0 0 0 0 0 0 0 0 0 0 0 0 0 0 0 0
0 0 0 0 0 0 0 0 0 0 0 0 0 0 0 0 0 0 0 0 0 0 0 0 0 0 0 0 0 0 0 0 0 0 0 0 0 0 0 0 0 0 0 0
0 0 0 0 0 0 0 0 0 0 0 0 0 0 0 0 0 0 0 0 0 0 0 0 0 0 0 0 0 0 0 0 0 0 0 0 0 0 0 0 0 0 0 0
0 0 0 0 0 0 0 0 0 0 0 -0 -0 0 0 0 0 0 0 0 0 0 0 0 0 0 0 0 0 0 0 0 0 0 0 0 0 0 0 0 0 0 0 0
0 0 0 0 0 0 0 0 0 0 0 0 0 0 0 0 0 0 0 0 0 0 0 0 0 0 0 0 0 0 0 0 0 0 0 0 0 0 0 0 0 0 0 0
0 0 0 0 0 0 0 0 0 0 0 0 0 0 0 0 0 0 0 0 0 0 0 0 0 0 -0 0 0 0 0 0 0 0 0 0 0 0 0 0 0 0 0 0
0 0 0 0 0 0 0 0 0 0 0 0 0 0 0 0 0 0 0 0 0 0 0 0 0 0 -0 -0 0 0 0 0 0 0 0 0 0 0 0 0 0 0 0 0
0 0 0 0 0 0 0 0 0 0 0 0 0 0 0 0 0 0 0 0 0 0 0 0 0 0 -0 -0 0 0 0 0 0 0 0 0 0 0 0 0 0 0 0 0
0 0 0 0 0 0 0 0 0 0 0 0 0 0 0 0 0 0 0 0 0 0 0 0 0 0 -0 -0 0 0 0 0 0 0 0 0 0 0 0 0 0 0 0 0
0 0 0 0 0 0 0 0 0 0 0 0 0 0 0 0 0 0 0 0 0 0 0 0 0 -0 -0 -0 0 0 0 0 0 0 0 0 0 0 0 0 0 0 0 0
0 0 0 0 0 0 0 0 0 0 0 0 0 0 0 0 0 0 0 0 0 0 0 0 -0 -0 -0 -0 0 0 0 0 0 0 0 0 0 0 0 0 0 0 0 0
0 0 0 0 0 0 0 0 0 0 0 0 0 0 0 0 0 0 0 0 0 0 0 0 0 0 0 0 0 0 0 0 0 0 0 0 0 0 0 0 0 0 0 0
0 0 0 0 0 0 0 0 0 0 0 0 0 0 0 0 0 0 0 0 0 0 0 0 0 0 0 0 0 0 0 0 0 0 0 0 0 0 0 0 0 0 0 0
0 0 0 0 0 0 0 0 0 0 0 0 0 0 0 0 0 0 0 0 0 0 0 0 0 0 0 0 0 0 0 0 0 0 0 0 0 0 0 0 0 0 0 0
0 0 0 0 0 0 0 0 0 0 0 0 0 0 0 0 0 0 0 0 0 0 0 0 0 0 0 0 0 0 0 0 0 0 0 0 0 0 0 0 0 0 0 0
0 0 0 0 0 0 0 -0 -0 0 0 0 0 0 0 0 0 0 0 0 0 0 0 0 0 0 0 0 0 0 0 0 0 0 0 0 0 0 0 0 0 0 0 0
0 0 0 0 0 0 0 0 -0 -0 -0 0 0 0 0 0 0 0 0 0 0 0 0 0 0 0 0 0 0 0 0 0 0 0 0 0 0 0 0 0 0 0 0 0
0 0 0 0 0 0 0 0 0 0 0 0 0 0 0 0 0 0 0 0 0 0 0 0 0 0 0 0 0 0 0 0 0 0 0 0 0 0 0 0 0 0 0 0
0 0 0 0 0 0 0 0 0 0 0 0 0 0 0 0 0 0 0 0 0 0 0 0 0 0 0 0 0 0 0 0 0 0 0 0 0 0 0 0 0 0 0 0
0 0 0 0 0 0 0 0 0 0 0 0 0 0 0 0 0 0 0 0 0 0 0 0 0 0 0 0 0 0 0 0 0 0 0 0 0 0 0 0 0 0 0 0
0 0 0 0 0 0 0 0 0 0 0 0 0 0 0 0 0 0 0 0 0 0 0 0 0 0 0 0 0 0 0 0 0 0 0 0 0 0 0 0 0 0 0 0
Wind_Speed
1 1 4 5 7 9 8 6 3 1 2 5 6 5 5 4 3 3 3 4 4 3 3 3 3 3 3 3 3 4 5 5 5 5 5 6 6 7 7 7 8 7 8 8
0 1 2 3 6 8 9 9 7 4 3 1 3 3 3 3 3 3 3 4 4 4 4 3 3 3 3 3 3 4 5 5 5 5 6 6 6 7 7 7 8 8 8 8
1 2 1 5 9 10 8 6 7 8 5 3 3 3 3 2 2 3 3 4 4 4 4 4 3 3 3 3 4 5 5 5 5 5 6 6 7 7 7 7 8 8 8 8
0 1 4 2 2 2 6 7 6 3 2 2 2 2 1 1 2 3 4 4 4 4 4 4 4 3 4 4 4 5 5 5 5 5 6 6 6 7 6 6 6 7 7 7
1 3 4 3 2 1 2 2 5 5 3 2 1 1 0 3 4 4 4 5 4 4 4 4 4 4 4 5 4 5 5 4 4 5 5 6 6 6 5 6 6 6 5 6
1 2 2 2 3 1 0 1 2 2 3 3 3 1 1 4 5 5 5 5 4 4 5 4 4 4 5 5 5 5 4 4 4 5 5 6 6 5 5 5 5 5 5 5
3 2 2 2 3 2 1 2 3 4 4 3 2 2 3 4 4 4 5 5 5 4 4 4 4 4 5 5 5 5 5 5 5 5 5 5 5 4 4 4 5 5 5 5
3 3 3 3 2 1 2 3 4 4 4 4 3 3 3 3 3 4 4 4 4 4 4 4 4 5 5 5 5 5 5 5 5 5 4 5 5 4 4 4 4 4 4 4
3 2 2 3 3 4 3 3 3 3 3 3 1 1 1 2 3 4 4 4 4 5 5 4 3 4 6 5 6 6 6 5 5 5 4 4 4 4 3 3 3 3 3 2
1 1 4 4 3 3 3 3 4 3 3 2 1 0 0 1 3 4 4 5 5 5 5 5 4 4 5 6 6 6 6 5 4 4 4 3 2 2 2 2 2 2 2 2
3 2 2 3 3 4 4 4 3 3 2 2 2 1 1 1 2 3 4 4 5 5 5 6 5 5 6 6 7 6 6 5 4 4 4 3 3 3 3 2 3 3 2 2
1 1 1 3 5 5 3 3 3 2 2 2 2 2 2 2 2 3 4 5 5 5 5 6 6 6 6 6 7 7 6 5 4 3 3 3 3 3 6 5 6 6 5 3
1 3 3 4 5 4 3 3 3 2 3 3 2 2 2 2 2 3 4 5 6 6 6 6 7 6 7 6 6 6 5 5 4 4 4 3 3 3 3 2 3 4 3 3
3 2 1 2 3 3 2 2 2 3 3 3 2 1 1 1 2 3 4 5 5 6 6 7 7 6 6 6 6 6 5 5 5 3 4 3 3 3 3 3 2 1 2 3
2 2 2 3 3 3 2 2 2 3 3 3 2 2 2 2 3 3 3 4 5 6 6 7 7 6 6 6 6 6 5 4 4 3 3 3 3 3 2 2 2 1 1 2
3 2 2 2 2 1 2 3 3 3 3 3 3 3 2 2 2 2 3 5 6 6 6 7 7 6 7 7 7 5 5 7 6 4 4 3 3 3 2 2 2 2 2 2
3 2 1 0 1 2 2 3 3 4 4 4 4 3 2 1 2 2 3 4 4 4 5 6 6 6 6 7 7 5 5 6 8 5 4 4 3 3 3 3 2 2 2 3
3 3 2 1 1 2 3 3 3 4 4 4 3 2 1 2 2 2 2 3 3 3 3 4 5 6 6 6 6 5 5 5 4 4 4 4 3 3 3 3 3 3 2 3
4 4 3 3 2 2 3 3 4 4 4 3 2 2 2 2 1 1 2 3 4 4 4 5 9 7 6 7 7 5 5 6 5 4 4 5 4 3 3 3 3 3 3 3
4 3 3 3 3 3 3 4 4 3 3 3 2 2 1 1 0 1 2 3 3 2 3 6 7 6 6 7 8 5 6 6 6 5 4 4 4 4 4 4 4 3 3 3
3 3 3 3 3 3 3 4 4 4 4 3 2 2 2 1 1 1 2 2 2 2 4 7 5 5 5 7 9 5 5 5 5 5 5 5 4 4 4 4 4 4 4 3
2 2 3 3 3 3 3 3 3 4 3 3 3 2 2 1 1 1 2 2 2 3 3 3 4 6 8 8 5 5 5 5 5 5 5 5 5 4 4 4 4 4 4 4
2 2 3 3 3 3 3 3 4 3 3 3 3 2 2 2 2 2 2 1 1 4 3 3 5 9 11 6 5 5 6 6 5 5 5 5 4 4 4 4 4 4 4 4
2 2 2 3 3 3 4 4 4 3 3 3 2 2 2 2 2 1 1 2 3 4 2 4 8 9 9 4 4 5 5 5 5 4 4 4 4 4 4 4 4 4 4 5
1 1 2 2 2 2 3 4 4 3 3 2 3 3 2 1 2 2 2 2 4 3 2 4 7 8 5 3 4 4 4 4 5 4 4 4 4 4 4 4 4 4 4 4
0 1 1 1 1 2 2 2 2 3 3 3 3 3 2 2 2 2 2 2 3 3 2 2 3 4 3 3 4 4 4 4 4 4 4 4 4 4 4 4 4 4 4 4
1 1 1 1 1 1 2 2 2 3 3 3 4 3 3 3 2 2 2 2 1 1 1 1 1 2 2 3 3 3 3 3 3 3 3 3 3 3 4 4 3 3 3 4
Wind_Direction
55 88 157 185 193 199 205 216 227 236 154 167 169 166 160 155 150 149 142 139 136 127 116 109 95 81 73 66 55 55 61 62 59 56 54 55 54 54 56 59 64 65 67 67
156 184 195 226 221 210 214 226 240 261 279 148 141 146 156 170 174 175 161 149 139 131 128 122 110 98 89 78 69 71 72 68 65 65 64 61 61 62 63 64 64 67 68 71
206 151 221 244 222 213 210 210 216 228 227 173 172 178 182 187 176 164 149 142 138 136 127 119 114 109 107 97 84 80 78 73 72 74 74 70 72 69 67 68 69 70 71 74
215 180 237 217 47 182 209 216 214 221 192 147 153 142 117 116 136 127 122 124 124 123 119 115 112 108 102 97 94 92 86 83 83 84 85 83 79 77 74 73 74 75 75 78
232 247 255 169 137 130 176 219 207 210 213 181 122 97 154 83 81 91 103 111 114 116 119 116 120 121 112 106 100 94 89 87 90 96 96 92 87 82 80 82 80 78 79 83
239 262 278 98 107 68 134 201 88 146 168 157 144 195 162 101 89 87 89 97 104 107 113 120 124 122 118 115 108 103 99 96 96 100 101 99 96 94 91 92 93 92 83 79
242 250 283 105 137 152 199 131 88 85 89 91 104 96 116 106 100 105 103 108 114 119 122 124 123 123 122 116 113 112 109 104 100 100 103 105 101 97 98 95 91 88 86 79
210 227 237 134 142 127 91 92 78 69 69 72 73 84 101 113 121 124 124 131 134 132 126 120 125 129 127 126 123 120 117 112 109 108 112 114 112 107 105 106 101 96 93 83
194 187 117 110 94 90 74 75 63 60 59 60 64 130 137 151 153 151 152 152 147 143 136 132 131 132 136 137 134 128 123 120 120 118 116 122 125 128 125 116 111 109 106 103
283 183 149 142 117 99 77 66 54 47 38 23 343 329 168 180 170 164 162 159 157 154 151 152 144 137 138 140 140 136 133 133 136 134 132 123 118 121 118 112 108 111 113 113
249 233 148 140 112 96 79 64 50 38 25 5 338 307 260 226 192 176 168 162 163 166 166 161 153 150 146 147 146 144 145 148 151 146 137 121 98 85 103 86 118 126 125 121
236 20 105 106 86 73 71 55 34 6 343 336 313 287 270 241 201 174 170 167 170 174 170 162 158 158 158 158 157 156 157 158 154 148 141 136 126 97 83 104 95 96 104 109
83 50 61 94 87 68 52 33 9 340 317 308 302 288 273 254 202 176 176 178 180 179 171 161 161 163 164 163 164 165 161 158 158 157 154 153 146 141 135 107 113 120 127 127
72 77 118 101 89 62 38 10 346 324 316 308 302 292 277 254 212 198 193 185 175 169 165 163 166 170 166 163 161 159 155 160 161 158 153 151 151 152 152 155 167 195 189 187
77 62 87 78 73 52 24 355 333 318 317 315 313 292 265 242 225 215 190 166 162 167 169 169 174 174 165 163 162 160 157 158 155 147 145 146 146 146 152 163 173 183 190 222
113 94 87 83 69 26 359 338 320 315 318 314 307 291 272 253 228 200 177 166 172 183 181 178 182 175 167 164 161 160 161 162 156 151 151 152 153 158 167 175 185 197 212 218
136 152 144 176 321 333 328 321 316 315 316 310 302 293 276 247 213 191 182 179 184 187 182 181 179 168 168 167 164 163 160 165 164 158 165 168 169 176 180 182 194 210 224 229
83 88 79 41 340 323 322 326 329 322 311 305 305 297 266 234 224 209 187 171 165 175 184 177 167 164 168 168 165 162 162 165 169 170 168 171 174 177 180 189 203 217 233 246
69 62 48 30 7 339 330 332 328 322 321 322 313 293 278 266 244 204 178 180 190 203 198 176 172 170 173 175 168 162 164 166 168 169 169 183 184 182 188 197 210 220 228 234
70 57 40 21 9 359 347 340 334 334 337 336 328 317 311 306 242 191 199 218 220 210 177 175 175 176 176 177 173 168 171 173 175 176 177 182 188 193 198 205 212 221 228 235
62 48 31 15 3 1 358 350 345 342 343 347 337 321 312 309 278 211 216 242 233 178 177 183 179 176 176 179 179 175 176 178 181 181 184 190 194 198 204 211 218 224 229 236
47 36 18 3 355 354 357 356 356 349 347 345 342 336 326 313 295 271 248 241 213 200 191 187 182 184 185 180 178 179 181 184 185 185 189 192 195 201 207 212 220 228 230 234
49 32 16 4 352 341 348 2 359 348 337 331 327 322 312 300 285 275 282 275 218 221 210 198 199 195 190 181 177 181 184 188 190 191 193 196 198 201 206 213 220 226 231 238
46 32 12 356 351 352 353 351 345 335 324 318 318 316 317 314 304 291 301 280 263 250 228 210 206 201 191 180 178 183 187 191 191 191 191 194 198 203 207 213 222 227 232 241
46 14 358 353 352 346 339 337 337 341 344 342 339 339 336 322 304 305 301 280 269 261 244 221 214 203 187 175 181 185 186 190 190 187 192 196 202 207 212 216 219 225 233 241
8 325 322 318 314 322 331 334 331 333 337 337 336 338 338 331 317 306 300 288 274 261 251 223 205 193 177 176 181 184 185 192 200 198 194 198 204 209 215 218 222 226 235 243
260 271 284 297 310 334 337 330 324 326 331 328 323 325 326 323 317 310 305 299 288 267 246 215 182 171 176 177 179 181 181 183 187 190 191 198 204 210 215 218 223 230 239 247